Temp
59 59 59 58 58 58 59 58 56 56 58 58 58 58 58 57 57 57 56 55 55 55 56 56 55 54 52 49 48 48 48 47 45 45 45 45 46 45 44 43 43 42 42 42 41 42 42 43 44 44 44 43 43 43 43 43 41 41 42 43 42 41 41 43 43 42 40 40 39
59 58 58 56 56 57 58 57 56 55 56 58 58 58 58 58 58 57 57 56 56 56 55 55 53 52 50 48 48 48 48 47 45 44 44 45 45 44 43 42 42 43 43 43 42 42 43 42 44 44 44 43 43 43 42 40 40 41 41 42 40 40 41 42 42 41 40 39 38
59 59 59 58 58 59 59 59 57 56 55 57 57 57 57 58 58 58 57 57 56 55 54 54 52 50 49 47 47 48 48 47 46 45 45 45 44 43 43 42 42 42 43 42 42 43 43 42 43 44 45 44 43 43 41 38 39 40 41 40 39 40 41 42 40 40 40 40 39
59 59 59 59 58 58 59 60 58 56 56 57 56 55 56 57 57 57 56 53 53 53 53 53 53 51 49 47 47 47 47 46 46 45 45 44 43 42 41 41 41 41 42 42 42 42 41 41 43 44 44 43 42 42 41 39 39 40 40 39 39 40 41 41 40 40 41 41 39
59 59 60 60 58 59 59 60 58 57 57 58 57 57 57 57 56 55 54 53 54 54 54 52 53 52 49 47 46 46 46 45 44 44 45 44 42 41 40 41 41 41 41 41 41 41 41 42 44 44 43 41 41 41 39 38 39 39 40 39 40 41 41 41 40 41 41 41 40
60 60 60 60 59 59 59 59 58 57 57 58 57 57 57 57 57 56 55 56 54 52 51 49 50 49 47 46 46 45 45 44 44 44 44 43 42 40 40 40 40 40 40 40 40 41 41 42 44 43 42 41 40 38 37 38 40 40 40 40 40 40 41 42 41 41 41 41 41
60 60 60 60 59 59 59 59 58 57 57 58 56 56 56 57 56 55 55 55 53 51 50 50 49 48 47 46 46 45 45 44 43 43 43 43 41 40 40 39 40 40 40 40 40 40 41 43 44 43 42 41 40 39 38 40 41 41 41 40 40 40 41 43 42 42 42 42 42
61 60 60 60 59 59 59 58 58 57 57 58 57 56 55 55 55 54 53 52 52 51 51 51 50 48 47 47 47 46 45 44 43 42 42 41 40 39 39 40 40 40 40 40 41 41 41 43 43 43 41 41 41 40 40 41 41 42 42 41 40 40 42 43 44 43 43 43 43
61 61 60 60 60 59 59 59 58 57 57 58 57 56 55 54 54 54 53 53 52 51 51 52 49 47 47 47 46 46 45 45 43 42 41 40 40 40 40 40 40 40 40 40 41 41 42 43 43 42 42 42 42 41 41 41 42 42 42 42 41 41 41 42 43 43 43 43 43
61 61 60 60 60 59 59 59 58 57 56 57 56 55 54 52 53 53 54 54 52 51 50 50 48 47 46 46 46 46 45 44 44 42 41 41 41 41 41 41 41 40 40 40 41 41 42 42 42 41 41 41 41 42 42 42 43 43 43 42 42 41 41 41 41 42 43 44 43
61 61 61 61 60 59 59 59 58 57 57 57 56 55 53 52 52 52 53 53 51 50 49 49 48 47 46 46 46 45 45 45 44 43 42 42 42 42 42 43 43 42 42 41 41 42 43 43 43 42 42 41 42 43 43 43 44 44 43 42 42 42 42 41 41 42 43 44 44
62 62 61 61 61 60 59 59 59 58 58 57 56 55 55 54 53 52 51 51 50 49 48 48 48 48 47 47 46 45 45 45 45 44 43 43 43 43 43 44 44 44 43 43 43 44 45 45 45 44 43 42 43 44 44 43 44 44 43 41 42 42 42 42 41 43 44 44 43
62 62 62 62 61 60 60 59 60 59 59 58 57 57 56 55 53 52 51 50 49 49 48 47 48 48 48 48 47 46 46 46 45 45 45 44 44 44 45 45 45 45 45 46 46 47 47 47 47 46 46 45 45 45 44 44 44 45 44 43 43 43 43 43 43 43 43 43 43
63 62 62 62 61 61 60 60 60 60 59 58 58 58 57 55 53 52 51 51 50 49 48 47 48 48 49 48 47 47 46 46 46 46 46 46 46 46 46 47 47 47 48 48 48 48 47 47 47 48 47 46 46 45 44 44 45 45 45 44 44 44 44 44 44 44 43 43 43
63 63 62 62 61 61 61 60 61 61 60 59 59 58 58 56 54 53 52 52 51 50 50 49 48 48 48 48 47 47 47 47 46 46 46 46 46 47 48 48 48 49 49 49 48 47 47 47 47 48 48 47 46 46 45 44 45 45 46 46 45 44 44 44 45 44 43 43 43
63 63 63 62 62 62 62 61 62 61 61 60 59 59 58 57 55 54 53 52 52 52 52 51 49 48 48 48 48 47 47 47 46 45 44 45 45 46 46 47 48 48 48 47 47 46 46 46 47 47 48 48 48 48 47 46 46 46 46 46 45 45 45 45 45 44 44 43 43
64 64 63 63 62 62 62 62 62 62 61 60 59 59 59 58 56 54 53 53 54 53 52 52 51 49 48 48 48 48 48 47 46 45 44 44 44 45 45 46 46 46 46 46 47 47 47 47 47 48 48 49 50 50 49 48 47 46 46 46 45 46 46 45 45 44 44 43 43
64 64 64 63 63 62 62 62 62 62 61 60 59 59 59 59 57 55 54 53 54 54 53 52 52 50 49 48 49 49 49 48 47 47 46 45 45 45 46 46 45 46 46 47 48 48 48 48 48 49 49 49 50 50 49 48 47 47 46 46 46 46 45 45 45 44 44 44 44
64 64 64 64 63 63 63 62 62 62 61 60 60 59 59 59 58 56 55 54 54 54 54 53 52 51 50 49 49 49 49 49 48 47 47 46 46 46 46 46 46 47 47 48 48 48 48 48 49 49 49 49 49 49 48 47 47 46 46 46 46 45 45 44 45 45 45 45 45
65 65 65 64 64 64 63 62 62 62 61 60 60 59 59 59 58 57 55 54 54 54 54 54 53 52 51 50 50 49 49 49 47 47 47 47 47 47 47 47 47 47 47 47 48 48 48 48 48 48 48 48 47 47 46 46 46 46 46 46 46 45 45 45 45 46 46 46 46
66 66 65 65 65 64 64 63 63 62 62 61 60 60 60 60 59 58 56 55 54 54 54 54 53 53 52 51 50 49 48 49 48 47 48 48 48 48 48 48 48 48 48 48 48 48 48 48 48 48 47 46 46 46 46 46 46 46 46 46 45 45 45 45 46 46 46 46 46
67 67 66 66 66 65 65 64 64 63 62 62 61 61 60 60 60 59 57 55 54 54 53 53 53 53 53 52 50 50 49 48 48 48 48 48 49 49 49 49 49 49 49 48 48 48 48 48 48 48 47 46 46 46 46 46 46 46 45 45 45 46 46 46 45 46 47 47 47
66 67 67 66 65 64 63 63 62 62 61 60 59 59 59 59 59 58 57 55 54 54 53 52 52 53 53 53 52 51 51 49 48 48 49 49 49 49 49 49 49 49 49 49 49 48 48 48 48 48 47 47 47 47 47 47 46 46 46 46 46 46 47 47 47 47 48 48 48
62 63 63 64 63 62 61 60 59 59 58 58 57 57 57 57 58 57 56 55 55 54 54 53 53 53 53 54 54 53 51 50 49 49 49 50 50 50 50 50 50 50 50 49 49 48 47 47 48 48 48 47 47 47 47 47 47 47 47 47 47 47 47 48 48 48 48 48 48
61 61 61 61 60 60 59 58 58 58 57 57 57 57 57 57 57 56 56 55 55 55 55 54 54 54 54 54 54 53 52 51 50 49 49 50 50 50 50 50 50 50 50 49 46 45 44 45 47 48 49 49 48 48 47 47 47 47 47 47 46 46 46 46 47 47 48 48 48
61 60 60 60 59 59 58 58 58 57 57 57 57 57 57 57 56 56 56 55 55 55 55 55 55 54 53 54 53 52 51 50 50 50 49 49 49 50 50 50 50 50 50 48 44 43 43 43 44 46 47 49 49 49 48 48 47 46 46 46 45 45 45 45 45 46 47 48 48
60 60 59 59 59 58 58 58 57 57 57 57 57 57 57 57 56 56 55 55 56 55 55 55 54 52 51 53 52 51 50 50 50 50 50 50 49 50 50 50 50 50 49 46 44 42 42 43 43 44 46 49 49 49 48 47 46 44 44 43 43 43 44 44 44 44 44 46 46
59 59 59 59 59 58 58 58 57 57 57 57 57 57 57 57 56 55 54 54 55 55 55 55 54 52 51 52 52 51 50 50 50 50 50 50 50 50 50 50 50 49 48 45 43 43 43 43 43 43 44 46 47 47 46 45 44 43 42 42 42 42 42 43 43 42 42 43 44
59 59 59 59 58 58 58 57 57 57 57 57 57 57 57 57 57 56 55 54 54 53 53 53 52 52 52 52 51 51 51 51 50 50 50 50 50 50 50 50 49 48 46 44 44 43 43 43 43 43 43 44 47 47 46 46 45 44 43 43 43 42 41 41 41 40 40 41 42
59 59 58 58 58 58 58 57 57 57 57 57 57 57 57 57 57 57 57 55 54 53 53 53 52 51 51 51 51 51 51 51 51 50 50 50 50 49 49 49 49 48 46 43 43 44 44 44 43 43 43 43 45 46 45 44 43 43 43 43 42 40 40 39 39 39 39 39 40
59 58 58 58 57 57 58 58 58 58 57 57 57 57 57 56 57 57 57 56 54 53 52 52 52 51 51 51 51 51 51 51 51 50 50 50 49 49 49 49 48 47 45 42 43 43 43 43 43 43 42 42 44 45 45 43 42 42 41 40 39 38 38 38 37 37 37 38 38
58 58 58 57 57 57 57 58 58 57 57 57 57 57 56 56 56 57 57 56 54 53 52 52 51 51 51 51 51 51 51 51 51 50 50 50 49 49 49 48 48 46 43 41 41 42 42 43 43 42 42 41 43 45 45 42 41 39 39 38 38 37 37 37 37 37 37 37 37
58 58 58 57 57 57 57 57 57 57 57 57 57 57 56 56 56 56 56 55 53 52 52 51 51 50 50 50 50 51 51 51 51 50 49 49 49 49 48 48 48 45 42 41 41 41 41 42 42 42 41 40 43 44 44 42 40 39 38 37 37 37 37 37 37 37 37 37 37
58 58 57 57 57 57 57 56 56 56 56 56 56 56 56 56 55 55 55 53 53 52 52 52 51 51 51 51 51 51 51 50 51 50 50 50 50 49 48 47 47 44 41 40 40 40 41 41 41 41 41 40 41 42 42 41 39 38 37 37 37 37 37 37 38 38 38 37 38
57 57 57 57 57 57 56 55 55 55 56 55 55 55 55 55 55 55 54 52 52 52 52 52 52 51 51 51 51 51 51 50 51 50 50 50 49 48 47 46 44 41 39 39 39 40 40 41 41 41 40 39 40 41 41 40 38 38 38 37 37 37 37 38 38 38 38 38 38
57 57 57 57 57 56 56 55 55 55 55 55 54 55 54 54 54 54 53 51 51 52 52 52 51 51 51 51 51 51 50 51 50 50 49 49 48 47 46 44 42 39 38 38 39 39 40 40 40 40 40 40 40 40 40 39 39 38 38 38 38 38 38 38 38 38 38 37 37
57 57 57 56 56 56 55 55 55 55 55 54 54 54 54 53 53 53 52 51 52 52 52 51 51 51 51 51 50 50 50 50 49 49 48 47 46 46 44 42 40 38 37 38 39 39 40 40 40 40 40 40 40 40 40 39 39 39 38 38 38 38 37 37 37 37 38 38 38
57 57 56 56 56 55 55 54 55 55 55 54 54 53 53 52 52 52 52 51 52 52 51 51 51 51 51 50 50 49 49 49 48 47 46 46 45 44 43 40 39 38 37 38 38 39 40 40 40 40 40 40 40 40 40 39 39 38 38 38 37 37 36 36 37 38 38 37 37
57 56 56 56 55 55 54 54 54 55 55 54 53 53 52 52 52 52 52 51 53 52 52 51 51 51 50 49 49 48 47 46 45 45 44 44 43 42 40 39 38 37 37 37 38 39 39 40 40 40 40 39 40 40 39 39 38 38 38 37 37 37 37 37 38 37 36 35 36
56 56 56 55 55 55 54 54 54 54 54 54 53 53 52 52 52 52 52 52 53 53 52 51 51 50 48 46 46 45 44 43 43 43 42 42 41 40 39 38 37 36 37 38 38 39 39 40 40 40 39 38 39 39 39 38 38 37 37 37 37 37 38 38 37 36 34 34 34
56 55 55 55 55 54 54 54 53 53 53 53 53 52 52 51 51 51 52 52 52 52 51 50 49 47 46 44 43 42 40 40 40 40 40 39 39 38 38 37 37 37 37 38 38 39 39 40 40 39 39 37 38 38 38 38 37 37 36 37 38 38 38 37 36 34 33 33 33
MSLP
1012.77 1012.93 1013.09 1013.29 1013.49 1013.69 1013.89 1014.05 1014.21 1014.41 1014.57 1014.77 1014.93 1015.13 1015.33 1015.49 1015.69 1015.89 1016.05 1016.21 1016.33 1016.49 1016.61 1016.69 1016.81 1017.05 1017.25 1017.49 1017.73 1017.93 1018.13 1018.33 1018.49 1018.69 1018.85 1019.01 1019.13 1019.33 1019.49 1019.65 1019.81 1020.01 1020.21 1020.33 1020.53 1020.69 1020.81 1020.97 1021.17 1021.33 1021.49 1021.69 1021.85 1022.01 1022.13 1022.21 1022.33 1022.49 1022.65 1022.69 1022.81 1022.93 1023.01 1023.05 1023.21 1023.37 1023.49 1023.61 1023.65
1012.69 1012.85 1013.05 1013.21 1013.41 1013.61 1013.77 1014.01 1014.21 1014.33 1014.49 1014.61 1014.77 1014.97 1015.13 1015.33 1015.49 1015.69 1015.89 1016.05 1016.17 1016.29 1016.45 1016.65 1016.81 1017.01 1017.21 1017.45 1017.61 1017.81 1018.05 1018.25 1018.45 1018.65 1018.81 1019.01 1019.13 1019.33 1019.53 1019.69 1019.85 1020.01 1020.17 1020.33 1020.53 1020.69 1020.89 1021.05 1021.17 1021.37 1021.53 1021.69 1021.89 1022.05 1022.13 1022.29 1022.33 1022.49 1022.57 1022.69 1022.77 1022.89 1022.97 1023.05 1023.17 1023.29 1023.41 1023.53 1023.65
1012.53 1012.73 1012.89 1013.09 1013.33 1013.49 1013.69 1013.93 1014.09 1014.25 1014.41 1014.53 1014.65 1014.85 1015.05 1015.17 1015.37 1015.49 1015.69 1015.85 1016.01 1016.21 1016.45 1016.65 1016.77 1016.97 1017.21 1017.41 1017.61 1017.77 1017.93 1018.17 1018.41 1018.65 1018.81 1019.01 1019.21 1019.37 1019.57 1019.73 1019.89 1020.05 1020.21 1020.37 1020.53 1020.69 1020.89 1021.05 1021.17 1021.33 1021.49 1021.69 1021.85 1022.01 1022.13 1022.29 1022.33 1022.45 1022.53 1022.65 1022.77 1022.85 1022.93 1023.05 1023.17 1023.25 1023.37 1023.49 1023.57
1012.41 1012.61 1012.77 1012.97 1013.17 1013.29 1013.45 1013.65 1013.89 1014.09 1014.29 1014.41 1014.57 1014.77 1014.93 1015.05 1015.21 1015.37 1015.53 1015.77 1016.05 1016.21 1016.37 1016.53 1016.73 1016.93 1017.09 1017.37 1017.61 1017.77 1017.93 1018.13 1018.33 1018.61 1018.81 1019.05 1019.25 1019.45 1019.57 1019.73 1019.93 1020.09 1020.25 1020.41 1020.57 1020.73 1020.93 1021.05 1021.21 1021.33 1021.49 1021.65 1021.81 1021.97 1022.09 1022.25 1022.33 1022.45 1022.53 1022.65 1022.73 1022.81 1022.93 1023.01 1023.09 1023.21 1023.29 1023.37 1023.49
1012.29 1012.45 1012.61 1012.77 1012.93 1013.09 1013.21 1013.37 1013.65 1013.93 1014.13 1014.29 1014.49 1014.69 1014.85 1014.97 1015.13 1015.33 1015.53 1015.77 1015.93 1016.05 1016.21 1016.41 1016.65 1016.81 1017.05 1017.33 1017.53 1017.77 1017.97 1018.17 1018.37 1018.61 1018.81 1019.05 1019.25 1019.45 1019.65 1019.77 1019.93 1020.09 1020.29 1020.45 1020.61 1020.77 1020.93 1021.05 1021.21 1021.33 1021.49 1021.65 1021.77 1021.93 1022.05 1022.21 1022.33 1022.45 1022.53 1022.65 1022.69 1022.77 1022.85 1022.97 1023.05 1023.13 1023.21 1023.25 1023.37
1012.17 1012.33 1012.45 1012.61 1012.77 1012.97 1013.13 1013.29 1013.49 1013.73 1013.97 1014.17 1014.37 1014.61 1014.77 1014.89 1015.05 1015.21 1015.45 1015.61 1015.73 1015.93 1016.13 1016.37 1016.61 1016.81 1017.05 1017.29 1017.49 1017.73 1017.93 1018.21 1018.41 1018.61 1018.81 1019.05 1019.29 1019.45 1019.65 1019.81 1019.93 1020.09 1020.29 1020.45 1020.65 1020.77 1020.93 1021.05 1021.21 1021.37 1021.57 1021.69 1021.81 1021.93 1022.09 1022.21 1022.33 1022.41 1022.53 1022.65 1022.73 1022.73 1022.77 1022.89 1022.93 1023.01 1023.09 1023.17 1023.25
1011.97 1012.17 1012.33 1012.49 1012.69 1012.89 1013.05 1013.21 1013.41 1013.61 1013.81 1014.05 1014.21 1014.41 1014.57 1014.73 1014.93 1015.05 1015.21 1015.41 1015.61 1015.85 1016.09 1016.33 1016.49 1016.77 1017.01 1017.29 1017.49 1017.73 1017.93 1018.21 1018.41 1018.61 1018.77 1019.05 1019.25 1019.49 1019.65 1019.81 1019.93 1020.09 1020.29 1020.45 1020.65 1020.81 1020.93 1021.05 1021.21 1021.37 1021.53 1021.65 1021.77 1021.93 1022.05 1022.13 1022.21 1022.33 1022.49 1022.65 1022.65 1022.65 1022.65 1022.73 1022.77 1022.81 1022.93 1023.05 1023.09
1011.85 1012.05 1012.21 1012.33 1012.57 1012.77 1012.93 1013.13 1013.33 1013.53 1013.73 1013.89 1014.05 1014.21 1014.37 1014.53 1014.73 1014.93 1015.09 1015.33 1015.53 1015.77 1015.97 1016.21 1016.41 1016.65 1016.93 1017.21 1017.45 1017.69 1017.93 1018.21 1018.41 1018.65 1018.81 1019.05 1019.25 1019.45 1019.65 1019.77 1019.93 1020.09 1020.25 1020.41 1020.57 1020.77 1020.93 1021.05 1021.17 1021.37 1021.53 1021.65 1021.77 1021.93 1021.97 1022.05 1022.09 1022.21 1022.37 1022.45 1022.45 1022.45 1022.45 1022.49 1022.53 1022.65 1022.73 1022.77 1022.89
1011.73 1011.93 1012.05 1012.25 1012.45 1012.65 1012.77 1012.97 1013.17 1013.37 1013.57 1013.69 1013.85 1014.05 1014.21 1014.37 1014.57 1014.77 1015.01 1015.21 1015.41 1015.61 1015.85 1016.09 1016.37 1016.65 1016.89 1017.13 1017.41 1017.65 1017.89 1018.13 1018.37 1018.65 1018.85 1019.05 1019.21 1019.41 1019.57 1019.77 1019.93 1020.05 1020.21 1020.37 1020.49 1020.65 1020.81 1020.97 1021.13 1021.29 1021.37 1021.49 1021.65 1021.77 1021.85 1021.89 1021.97 1022.05 1022.13 1022.21 1022.25 1022.25 1022.25 1022.25 1022.33 1022.37 1022.49 1022.53 1022.65
1011.57 1011.77 1011.93 1012.17 1012.33 1012.49 1012.65 1012.89 1013.05 1013.21 1013.41 1013.53 1013.69 1013.89 1014.05 1014.25 1014.45 1014.65 1014.85 1015.01 1015.33 1015.61 1015.81 1016.05 1016.33 1016.65 1016.93 1017.17 1017.37 1017.61 1017.85 1018.05 1018.33 1018.57 1018.77 1018.93 1019.13 1019.29 1019.49 1019.65 1019.81 1020.01 1020.21 1020.29 1020.41 1020.53 1020.69 1020.89 1021.05 1021.21 1021.29 1021.37 1021.49 1021.61 1021.65 1021.73 1021.77 1021.85 1021.93 1021.93 1022.01 1022.05 1022.13 1022.13 1022.21 1022.21 1022.29 1022.33 1022.41
1011.29 1011.49 1011.77 1011.93 1012.13 1012.33 1012.57 1012.77 1012.93 1013.09 1013.29 1013.45 1013.61 1013.77 1013.97 1014.17 1014.33 1014.53 1014.77 1014.97 1015.29 1015.61 1015.81 1016.01 1016.25 1016.57 1016.85 1017.09 1017.29 1017.49 1017.73 1017.93 1018.17 1018.41 1018.65 1018.81 1019.01 1019.17 1019.29 1019.45 1019.65 1019.85 1020.01 1020.21 1020.29 1020.41 1020.57 1020.73 1020.93 1021.05 1021.17 1021.21 1021.33 1021.37 1021.49 1021.53 1021.57 1021.65 1021.69 1021.77 1021.81 1021.93 1022.01 1022.05 1022.09 1022.13 1022.17 1022.21 1022.29
1011.05 1011.33 1011.49 1011.73 1011.93 1012.17 1012.41 1012.61 1012.77 1012.93 1013.09 1013.29 1013.49 1013.69 1013.89 1014.05 1014.29 1014.49 1014.77 1015.05 1015.33 1015.57 1015.77 1015.97 1016.17 1016.41 1016.69 1016.93 1017.17 1017.37 1017.57 1017.77 1017.97 1018.21 1018.41 1018.61 1018.77 1018.93 1019.05 1019.21 1019.41 1019.61 1019.77 1019.93 1020.05 1020.21 1020.33 1020.49 1020.65 1020.81 1020.93 1021.05 1021.09 1021.17 1021.21 1021.33 1021.41 1021.49 1021.57 1021.65 1021.81 1021.93 1021.93 1021.97 1022.05 1022.05 1022.05 1022.13 1022.25
1010.89 1011.09 1011.29 1011.49 1011.77 1011.97 1012.21 1012.41 1012.53 1012.73 1012.93 1013.13 1013.33 1013.49 1013.73 1013.97 1014.21 1014.49 1014.77 1015.05 1015.29 1015.53 1015.77 1015.93 1016.05 1016.29 1016.49 1016.77 1016.93 1017.17 1017.37 1017.57 1017.77 1017.93 1018.13 1018.33 1018.53 1018.69 1018.85 1019.01 1019.17 1019.37 1019.49 1019.65 1019.73 1019.85 1019.97 1020.17 1020.29 1020.45 1020.65 1020.77 1020.85 1020.93 1021.05 1021.21 1021.37 1021.49 1021.57 1021.69 1021.81 1021.89 1021.89 1021.93 1021.93 1022.01 1022.05 1022.13 1022.21
1010.65 1010.89 1011.09 1011.33 1011.53 1011.77 1011.97 1012.17 1012.33 1012.49 1012.69 1012.93 1013.13 1013.37 1013.61 1013.89 1014.17 1014.45 1014.73 1014.97 1015.21 1015.45 1015.65 1015.85 1016.01 1016.13 1016.29 1016.49 1016.69 1016.93 1017.09 1017.29 1017.49 1017.73 1017.93 1018.05 1018.25 1018.45 1018.61 1018.77 1018.89 1019.01 1019.17 1019.29 1019.37 1019.49 1019.65 1019.77 1019.93 1020.05 1020.25 1020.49 1020.65 1020.77 1020.93 1021.09 1021.25 1021.37 1021.45 1021.57 1021.69 1021.73 1021.73 1021.77 1021.85 1021.93 1022.05 1022.13 1022.21
1010.49 1010.65 1010.85 1011.05 1011.29 1011.49 1011.73 1011.93 1012.05 1012.25 1012.49 1012.77 1012.97 1013.21 1013.49 1013.77 1014.05 1014.33 1014.57 1014.81 1015.05 1015.25 1015.45 1015.69 1015.85 1015.97 1016.09 1016.21 1016.45 1016.65 1016.85 1017.05 1017.29 1017.49 1017.73 1017.93 1018.05 1018.21 1018.33 1018.49 1018.57 1018.69 1018.77 1018.93 1019.05 1019.21 1019.29 1019.45 1019.57 1019.73 1019.93 1020.09 1020.33 1020.49 1020.61 1020.77 1020.89 1020.93 1021.01 1021.13 1021.29 1021.41 1021.53 1021.65 1021.77 1021.89 1021.97 1022.05 1022.17
1010.21 1010.37 1010.61 1010.85 1011.05 1011.25 1011.45 1011.65 1011.81 1012.05 1012.29 1012.53 1012.77 1013.05 1013.29 1013.53 1013.81 1014.09 1014.33 1014.57 1014.81 1015.01 1015.17 1015.37 1015.61 1015.77 1015.93 1016.05 1016.21 1016.41 1016.65 1016.89 1017.05 1017.33 1017.61 1017.81 1017.93 1018.05 1018.17 1018.25 1018.33 1018.45 1018.57 1018.73 1018.85 1018.97 1019.05 1019.17 1019.25 1019.37 1019.53 1019.73 1019.89 1020.01 1020.09 1020.25 1020.33 1020.45 1020.53 1020.69 1020.93 1021.25 1021.53 1021.65 1021.77 1021.81 1021.89 1021.93 1022.05
1009.93 1010.13 1010.33 1010.57 1010.77 1010.93 1011.13 1011.37 1011.57 1011.77 1012.01 1012.25 1012.49 1012.77 1013.01 1013.21 1013.49 1013.77 1014.01 1014.21 1014.45 1014.65 1014.85 1015.05 1015.25 1015.49 1015.73 1015.89 1016.05 1016.21 1016.45 1016.73 1016.97 1017.21 1017.49 1017.65 1017.81 1017.93 1018.05 1018.13 1018.21 1018.33 1018.45 1018.61 1018.77 1018.89 1018.97 1019.05 1019.13 1019.21 1019.29 1019.37 1019.53 1019.65 1019.77 1019.93 1020.05 1020.21 1020.33 1020.49 1020.77 1021.05 1021.29 1021.45 1021.53 1021.65 1021.73 1021.81 1021.93
1009.65 1009.81 1010.01 1010.21 1010.41 1010.61 1010.81 1011.05 1011.29 1011.49 1011.73 1011.93 1012.21 1012.45 1012.65 1012.89 1013.17 1013.45 1013.65 1013.81 1013.97 1014.21 1014.45 1014.65 1014.89 1015.13 1015.37 1015.65 1015.81 1016.01 1016.21 1016.49 1016.81 1017.05 1017.29 1017.45 1017.65 1017.77 1017.93 1018.05 1018.17 1018.29 1018.41 1018.49 1018.65 1018.77 1018.93 1019.05 1019.17 1019.25 1019.25 1019.25 1019.37 1019.49 1019.65 1019.81 1020.01 1020.17 1020.33 1020.53 1020.73 1020.89 1021.05 1021.21 1021.25 1021.37 1021.53 1021.65 1021.77
1009.33 1009.49 1009.73 1009.93 1010.09 1010.29 1010.49 1010.81 1011.01 1011.21 1011.45 1011.65 1011.89 1012.09 1012.33 1012.53 1012.77 1013.05 1013.33 1013.49 1013.61 1013.77 1014.05 1014.29 1014.61 1014.89 1015.13 1015.37 1015.61 1015.81 1016.05 1016.29 1016.65 1016.89 1017.13 1017.29 1017.49 1017.65 1017.77 1017.93 1018.13 1018.33 1018.49 1018.61 1018.69 1018.81 1018.93 1019.05 1019.21 1019.25 1019.29 1019.33 1019.41 1019.53 1019.65 1019.81 1019.97 1020.17 1020.37 1020.57 1020.77 1020.89 1020.97 1021.05 1021.13 1021.21 1021.37 1021.49 1021.65
1008.97 1009.17 1009.37 1009.53 1009.73 1009.97 1010.21 1010.49 1010.73 1010.93 1011.17 1011.37 1011.61 1011.81 1012.05 1012.21 1012.41 1012.69 1013.01 1013.21 1013.37 1013.49 1013.77 1014.01 1014.33 1014.65 1014.93 1015.17 1015.45 1015.73 1015.93 1016.21 1016.49 1016.77 1017.05 1017.29 1017.45 1017.57 1017.73 1017.93 1018.21 1018.41 1018.61 1018.69 1018.77 1018.81 1018.93 1019.05 1019.17 1019.21 1019.33 1019.41 1019.53 1019.65 1019.77 1019.93 1020.05 1020.21 1020.37 1020.49 1020.65 1020.77 1020.85 1020.93 1021.05 1021.09 1021.21 1021.33 1021.45
1008.57 1008.77 1008.97 1009.21 1009.45 1009.69 1009.93 1010.21 1010.41 1010.65 1010.89 1011.09 1011.33 1011.49 1011.69 1011.89 1012.09 1012.33 1012.65 1012.93 1013.17 1013.37 1013.61 1013.81 1014.05 1014.41 1014.77 1015.05 1015.33 1015.57 1015.85 1016.09 1016.37 1016.69 1016.97 1017.29 1017.49 1017.65 1017.85 1018.05 1018.25 1018.45 1018.53 1018.61 1018.65 1018.69 1018.77 1018.93 1019.05 1019.17 1019.29 1019.41 1019.53 1019.65 1019.81 1019.93 1020.05 1020.17 1020.25 1020.33 1020.49 1020.57 1020.69 1020.77 1020.93 1021.01 1021.05 1021.13 1021.21
1008.21 1008.37 1008.65 1008.93 1009.17 1009.45 1009.69 1009.93 1010.17 1010.41 1010.65 1010.81 1011.05 1011.21 1011.41 1011.65 1011.89 1012.13 1012.41 1012.77 1013.05 1013.33 1013.49 1013.69 1013.93 1014.21 1014.53 1014.81 1015.09 1015.37 1015.65 1015.93 1016.21 1016.49 1016.77 1017.17 1017.49 1017.73 1017.93 1018.09 1018.21 1018.25 1018.25 1018.33 1018.37 1018.49 1018.65 1018.77 1018.89 1019.01 1019.17 1019.29 1019.41 1019.53 1019.65 1019.77 1019.89 1020.01 1020.09 1020.21 1020.33 1020.45 1020.57 1020.69 1020.77 1020.85 1020.89 1020.93 1021.05
1007.89 1008.13 1008.41 1008.69 1008.93 1009.25 1009.53 1009.77 1009.97 1010.21 1010.49 1010.65 1010.89 1011.09 1011.33 1011.57 1011.77 1012.05 1012.41 1012.77 1013.05 1013.29 1013.49 1013.77 1013.93 1014.17 1014.37 1014.65 1014.89 1015.17 1015.49 1015.85 1016.09 1016.29 1016.53 1016.85 1017.25 1017.61 1017.81 1017.93 1018.05 1018.01 1017.97 1018.05 1018.13 1018.29 1018.49 1018.65 1018.77 1018.89 1019.01 1019.13 1019.21 1019.33 1019.45 1019.61 1019.73 1019.85 1019.97 1020.09 1020.21 1020.33 1020.45 1020.53 1020.61 1020.61 1020.61 1020.65 1020.77
1007.77 1008.05 1008.29 1008.53 1008.81 1009.09 1009.37 1009.65 1009.93 1010.21 1010.49 1010.69 1010.93 1011.17 1011.37 1011.61 1011.85 1012.13 1012.49 1012.77 1013.01 1013.29 1013.61 1013.93 1014.17 1014.33 1014.49 1014.65 1014.93 1015.13 1015.41 1015.77 1016.09 1016.33 1016.53 1016.73 1017.01 1017.25 1017.45 1017.57 1017.69 1017.73 1017.73 1017.77 1017.93 1018.05 1018.25 1018.45 1018.61 1018.73 1018.89 1018.97 1019.05 1019.17 1019.25 1019.41 1019.53 1019.65 1019.77 1019.93 1020.05 1020.21 1020.33 1020.37 1020.37 1020.37 1020.37 1020.41 1020.49
1007.77 1008.01 1008.21 1008.45 1008.69 1008.97 1009.25 1009.57 1009.89 1010.21 1010.53 1010.77 1010.97 1011.21 1011.41 1011.65 1011.89 1012.17 1012.45 1012.73 1012.97 1013.25 1013.53 1013.85 1014.17 1014.37 1014.57 1014.77 1014.97 1015.21 1015.45 1015.73 1016.05 1016.33 1016.57 1016.77 1016.85 1016.93 1017.05 1017.17 1017.29 1017.37 1017.45 1017.53 1017.69 1017.85 1018.01 1018.17 1018.33 1018.49 1018.65 1018.73 1018.89 1018.97 1019.09 1019.25 1019.37 1019.49 1019.61 1019.77 1019.93 1020.05 1020.21 1020.25 1020.25 1020.21 1020.21 1020.25 1020.29
1007.73 1007.93 1008.17 1008.33 1008.57 1008.89 1009.21 1009.53 1009.81 1010.05 1010.33 1010.61 1010.85 1011.09 1011.37 1011.65 1011.89 1012.13 1012.41 1012.69 1012.93 1013.21 1013.45 1013.69 1014.01 1014.25 1014.49 1014.65 1014.93 1015.21 1015.49 1015.73 1016.01 1016.29 1016.49 1016.61 1016.65 1016.65 1016.73 1016.81 1016.93 1016.97 1017.09 1017.29 1017.45 1017.61 1017.77 1017.97 1018.09 1018.21 1018.33 1018.49 1018.65 1018.77 1018.93 1019.05 1019.17 1019.33 1019.49 1019.65 1019.77 1019.93 1020.05 1020.13 1020.13 1020.13 1020.09 1020.09 1020.17
1007.61 1007.85 1008.05 1008.25 1008.49 1008.77 1009.05 1009.37 1009.57 1009.77 1009.97 1010.25 1010.57 1010.93 1011.21 1011.53 1011.85 1012.17 1012.49 1012.77 1012.97 1013.17 1013.37 1013.57 1013.81 1014.09 1014.33 1014.53 1014.77 1015.09 1015.41 1015.69 1015.93 1016.09 1016.25 1016.33 1016.41 1016.45 1016.49 1016.57 1016.65 1016.69 1016.77 1016.97 1017.17 1017.37 1017.57 1017.77 1017.93 1018.05 1018.17 1018.25 1018.41 1018.57 1018.69 1018.81 1019.01 1019.21 1019.37 1019.53 1019.65 1019.77 1019.85 1019.93 1019.93 1019.97 1020.05 1020.09 1020.17
1007.45 1007.69 1007.93 1008.21 1008.41 1008.65 1008.89 1009.09 1009.33 1009.49 1009.65 1009.93 1010.21 1010.49 1010.81 1011.13 1011.49 1011.97 1012.41 1012.77 1013.01 1013.21 1013.37 1013.49 1013.69 1013.93 1014.21 1014.37 1014.65 1014.93 1015.21 1015.49 1015.77 1015.93 1016.01 1016.05 1016.17 1016.21 1016.33 1016.37 1016.41 1016.45 1016.53 1016.73 1016.93 1017.17 1017.37 1017.53 1017.73 1017.89 1018.05 1018.17 1018.29 1018.41 1018.57 1018.73 1018.93 1019.09 1019.29 1019.45 1019.53 1019.65 1019.69 1019.73 1019.77 1019.93 1020.05 1020.13 1020.21
1007.21 1007.53 1007.85 1008.17 1008.37 1008.57 1008.77 1009.01 1009.21 1009.45 1009.69 1009.97 1010.21 1010.37 1010.49 1010.65 1010.93 1011.33 1011.77 1012.21 1012.57 1012.85 1013.09 1013.33 1013.49 1013.73 1013.97 1014.21 1014.41 1014.69 1015.01 1015.29 1015.53 1015.65 1015.77 1015.81 1015.93 1016.01 1016.13 1016.21 1016.25 1016.25 1016.33 1016.49 1016.73 1016.93 1017.13 1017.37 1017.57 1017.77 1017.93 1018.05 1018.17 1018.29 1018.49 1018.65 1018.77 1019.01 1019.17 1019.29 1019.37 1019.49 1019.57 1019.65 1019.77 1019.89 1020.01 1020.13 1020.25
1007.13 1007.41 1007.73 1008.01 1008.21 1008.45 1008.65 1008.85 1009.05 1009.33 1009.65 1010.01 1010.29 1010.49 1010.61 1010.69 1010.85 1011.05 1011.37 1011.69 1012.01 1012.33 1012.65 1012.93 1013.21 1013.49 1013.73 1013.93 1014.21 1014.49 1014.77 1015.05 1015.25 1015.41 1015.53 1015.65 1015.77 1015.85 1015.97 1016.13 1016.17 1016.17 1016.21 1016.33 1016.53 1016.77 1016.97 1017.21 1017.41 1017.61 1017.77 1017.89 1018.01 1018.21 1018.33 1018.49 1018.69 1018.85 1019.01 1019.13 1019.25 1019.37 1019.49 1019.57 1019.73 1019.85 1019.97 1020.13 1020.25
1007.05 1007.33 1007.65 1007.93 1008.13 1008.33 1008.53 1008.73 1008.93 1009.25 1009.57 1009.93 1010.21 1010.49 1010.73 1010.93 1011.01 1011.13 1011.29 1011.49 1011.77 1012.05 1012.41 1012.73 1013.01 1013.21 1013.45 1013.69 1013.97 1014.21 1014.45 1014.69 1014.97 1015.17 1015.25 1015.37 1015.53 1015.65 1015.81 1016.05 1016.13 1016.17 1016.21 1016.29 1016.49 1016.65 1016.85 1017.05 1017.25 1017.41 1017.57 1017.77 1017.93 1018.05 1018.21 1018.41 1018.61 1018.77 1018.93 1019.05 1019.17 1019.33 1019.45 1019.57 1019.73 1019.89 1020.01 1020.17 1020.29
1006.93 1007.21 1007.49 1007.85 1008.09 1008.33 1008.49 1008.65 1008.93 1009.25 1009.49 1009.77 1010.09 1010.45 1010.77 1010.93 1010.97 1011.05 1011.17 1011.29 1011.57 1011.93 1012.33 1012.69 1012.93 1013.17 1013.37 1013.65 1013.81 1013.93 1014.05 1014.33 1014.61 1014.77 1014.93 1015.09 1015.29 1015.49 1015.69 1015.89 1016.05 1016.17 1016.21 1016.29 1016.41 1016.61 1016.81 1016.97 1017.13 1017.29 1017.45 1017.65 1017.77 1017.93 1018.09 1018.33 1018.53 1018.69 1018.89 1019.05 1019.21 1019.37 1019.45 1019.61 1019.73 1019.89 1020.01 1020.17 1020.33
1006.97 1007.17 1007.37 1007.69 1008.05 1008.33 1008.49 1008.69 1008.97 1009.21 1009.45 1009.65 1009.97 1010.33 1010.57 1010.69 1010.77 1010.85 1010.93 1011.05 1011.37 1011.77 1012.17 1012.53 1012.81 1013.09 1013.33 1013.53 1013.65 1013.73 1013.81 1013.93 1014.21 1014.45 1014.65 1014.85 1015.05 1015.33 1015.57 1015.77 1015.93 1016.05 1016.13 1016.21 1016.37 1016.57 1016.77 1016.89 1016.97 1017.13 1017.37 1017.53 1017.65 1017.81 1018.05 1018.29 1018.49 1018.73 1018.93 1019.09 1019.25 1019.37 1019.49 1019.61 1019.73 1019.89 1020.01 1020.17 1020.29
1006.97 1007.17 1007.37 1007.53 1007.93 1008.21 1008.45 1008.65 1008.93 1009.09 1009.29 1009.49 1009.93 1010.21 1010.41 1010.53 1010.65 1010.69 1010.81 1011.01 1011.25 1011.57 1011.89 1012.21 1012.53 1012.81 1013.05 1013.25 1013.41 1013.49 1013.57 1013.73 1013.93 1014.17 1014.45 1014.69 1014.93 1015.25 1015.49 1015.73 1015.81 1015.93 1016.09 1016.21 1016.33 1016.49 1016.65 1016.77 1016.85 1017.01 1017.21 1017.45 1017.65 1017.81 1018.05 1018.29 1018.53 1018.77 1018.93 1019.13 1019.25 1019.37 1019.49 1019.57 1019.65 1019.81 1019.93 1020.05 1020.21
1006.85 1007.09 1007.33 1007.53 1007.81 1008.05 1008.29 1008.53 1008.73 1008.89 1009.09 1009.49 1009.93 1010.21 1010.37 1010.45 1010.57 1010.65 1010.77 1010.97 1011.21 1011.49 1011.77 1012.05 1012.33 1012.61 1012.81 1012.97 1013.09 1013.21 1013.37 1013.53 1013.77 1014.01 1014.29 1014.61 1014.93 1015.21 1015.49 1015.77 1015.89 1016.01 1016.13 1016.21 1016.25 1016.37 1016.49 1016.65 1016.77 1016.93 1017.13 1017.41 1017.65 1017.89 1018.05 1018.33 1018.57 1018.77 1018.97 1019.17 1019.29 1019.41 1019.49 1019.61 1019.73 1019.81 1019.93 1020.05 1020.21
1006.73 1006.97 1007.21 1007.49 1007.73 1007.93 1008.13 1008.33 1008.49 1008.65 1008.93 1009.41 1009.85 1010.13 1010.29 1010.41 1010.57 1010.69 1010.81 1011.01 1011.21 1011.41 1011.69 1011.97 1012.29 1012.53 1012.77 1012.93 1013.01 1013.05 1013.21 1013.37 1013.65 1013.93 1014.25 1014.61 1014.93 1015.21 1015.49 1015.77 1015.97 1016.09 1016.17 1016.21 1016.21 1016.29 1016.37 1016.49 1016.65 1016.81 1017.05 1017.37 1017.65 1017.89 1018.05 1018.33 1018.57 1018.77 1018.93 1019.13 1019.33 1019.45 1019.53 1019.69 1019.81 1019.93 1020.05 1020.17 1020.25
1006.61 1006.85 1007.13 1007.37 1007.65 1007.85 1008.05 1008.21 1008.33 1008.49 1008.77 1009.21 1009.65 1010.01 1010.21 1010.45 1010.65 1010.81 1010.97 1011.13 1011.25 1011.41 1011.65 1011.93 1012.21 1012.49 1012.65 1012.81 1012.93 1013.05 1013.21 1013.37 1013.69 1014.01 1014.33 1014.65 1014.97 1015.29 1015.61 1015.89 1016.05 1016.21 1016.21 1016.21 1016.21 1016.21 1016.29 1016.37 1016.53 1016.77 1017.01 1017.33 1017.61 1017.89 1018.09 1018.33 1018.57 1018.77 1018.97 1019.21 1019.41 1019.53 1019.65 1019.77 1019.93 1020.05 1020.21 1020.29 1020.37
1006.57 1006.81 1007.05 1007.33 1007.53 1007.77 1007.93 1008.05 1008.17 1008.33 1008.57 1008.93 1009.41 1009.81 1010.17 1010.45 1010.73 1010.93 1011.05 1011.17 1011.29 1011.45 1011.65 1011.93 1012.21 1012.41 1012.61 1012.81 1013.05 1013.25 1013.49 1013.69 1013.93 1014.21 1014.49 1014.81 1015.05 1015.37 1015.65 1015.93 1016.17 1016.25 1016.29 1016.29 1016.25 1016.21 1016.25 1016.33 1016.45 1016.65 1016.89 1017.21 1017.49 1017.77 1018.05 1018.33 1018.57 1018.81 1019.05 1019.29 1019.49 1019.69 1019.85 1019.97 1020.05 1020.21 1020.37 1020.53 1020.61
1006.61 1006.81 1007.05 1007.29 1007.49 1007.69 1007.85 1007.97 1008.13 1008.25 1008.45 1008.73 1009.17 1009.65 1010.05 1010.33 1010.65 1010.85 1011.01 1011.09 1011.21 1011.37 1011.65 1011.93 1012.21 1012.45 1012.69 1012.97 1013.25 1013.61 1013.89 1014.05 1014.21 1014.41 1014.69 1014.97 1015.21 1015.41 1015.69 1016.01 1016.21 1016.33 1016.37 1016.41 1016.37 1016.33 1016.33 1016.41 1016.49 1016.65 1016.85 1017.09 1017.37 1017.65 1018.01 1018.33 1018.65 1018.89 1019.13 1019.41 1019.65 1019.85 1020.01 1020.13 1020.25 1020.49 1020.77 1020.93 1020.93
1006.65 1006.85 1007.05 1007.29 1007.49 1007.65 1007.81 1007.97 1008.13 1008.29 1008.49 1008.73 1009.13 1009.65 1010.01 1010.29 1010.53 1010.77 1010.93 1011.05 1011.21 1011.41 1011.65 1011.93 1012.25 1012.57 1012.89 1013.17 1013.49 1013.89 1014.21 1014.45 1014.61 1014.77 1014.97 1015.21 1015.37 1015.57 1015.77 1016.05 1016.33 1016.45 1016.49 1016.49 1016.49 1016.49 1016.49 1016.57 1016.65 1016.77 1016.93 1017.17 1017.37 1017.65 1017.97 1018.33 1018.69 1019.01 1019.29 1019.49 1019.73 1019.93 1020.13 1020.29 1020.49 1020.77 1021.05 1021.21 1021.25
1006.73 1006.93 1007.13 1007.33 1007.49 1007.65 1007.85 1008.05 1008.25 1008.45 1008.65 1008.89 1009.25 1009.65 1009.97 1010.25 1010.49 1010.77 1010.97 1011.21 1011.41 1011.61 1011.81 1012.09 1012.49 1012.81 1013.17 1013.49 1013.85 1014.21 1014.53 1014.85 1015.05 1015.21 1015.37 1015.49 1015.65 1015.85 1016.05 1016.21 1016.37 1016.49 1016.61 1016.61 1016.57 1016.57 1016.61 1016.69 1016.77 1016.93 1017.09 1017.33 1017.49 1017.73 1018.01 1018.37 1018.77 1019.13 1019.41 1019.61 1019.77 1019.97 1020.21 1020.49 1020.77 1021.01 1021.25 1021.41 1021.49
Wind_Speed
7 7 6 6 6 6 5 5 5 5 5 6 6 6 6 6 6 6 5 5 5 5 5 5 5 5 5 6 8 8 8 7 6 6 6 6 6 5 5 4 4 5 4 4 4 4 4 4 4 3 3 3 3 3 3 2 3 3 3 4 3 3 4 6 6 6 5 4 3
8 8 7 6 6 5 5 5 4 4 5 5 5 6 6 6 6 6 6 6 6 5 5 4 4 5 5 6 7 8 8 7 7 6 6 6 5 5 4 4 4 5 5 5 5 4 4 4 4 4 3 3 3 3 3 2 3 4 4 4 3 3 4 5 5 5 5 4 3
9 8 8 7 7 6 6 6 5 5 5 5 5 5 5 6 6 6 6 6 5 5 4 4 4 5 6 6 6 7 7 7 7 6 5 5 4 4 4 4 4 4 4 4 4 4 4 4 4 4 4 3 4 4 3 2 2 3 4 4 3 3 3 4 4 4 4 4 4
9 9 8 8 9 9 8 7 7 7 6 6 5 5 5 5 5 5 5 5 5 4 4 4 4 5 5 6 6 6 6 6 6 6 5 4 4 4 4 4 4 4 4 4 4 4 4 4 3 3 3 4 4 4 3 3 3 3 3 3 3 3 3 3 3 4 4 4 4
9 9 9 9 10 10 9 8 8 7 7 6 5 5 5 5 5 4 4 4 5 5 5 5 4 4 5 5 6 6 6 6 6 6 5 5 4 4 4 4 4 4 4 4 4 4 4 4 3 3 3 3 3 3 3 4 4 3 2 2 2 2 3 3 3 3 4 3 3
10 10 9 9 9 9 8 7 8 8 7 6 6 6 6 6 5 5 5 6 6 5 5 5 4 4 5 6 6 6 6 5 5 5 5 5 4 4 5 4 5 5 4 5 5 5 5 4 3 2 2 2 2 3 3 5 4 3 3 2 2 2 3 4 4 4 3 4 4
10 10 10 9 9 9 8 7 7 7 7 6 8 8 8 7 7 7 7 6 5 5 5 5 5 5 6 6 6 6 6 6 5 5 6 5 5 5 5 5 5 5 5 5 5 5 4 4 3 3 2 3 3 3 4 5 5 5 4 4 3 3 4 5 4 4 5 6 7
10 10 10 10 10 10 9 9 8 7 7 7 9 9 10 9 9 8 7 6 5 5 5 5 6 6 7 7 7 6 6 6 6 6 6 6 6 6 6 6 6 6 6 6 6 5 5 4 3 3 3 3 3 3 4 6 6 6 6 6 4 4 4 4 5 5 6 8 8
9 10 10 10 10 10 10 10 9 8 8 9 9 10 10 9 9 9 8 6 6 5 5 5 6 6 7 7 7 7 7 7 6 6 6 7 7 7 6 6 6 6 6 6 7 7 6 4 3 3 4 4 4 5 6 7 8 8 7 6 5 5 5 5 5 6 7 8 9
10 10 10 10 10 10 10 10 9 9 9 9 9 9 9 9 9 8 7 6 5 5 5 5 6 6 7 8 7 7 7 7 7 7 7 7 7 7 7 6 7 7 6 6 6 7 7 5 4 4 4 5 6 6 7 8 9 9 8 5 6 6 6 5 6 7 7 7 9
12 11 11 10 11 10 10 10 9 9 9 9 9 9 8 8 8 7 6 5 5 5 6 6 7 7 7 7 7 8 7 7 7 7 8 8 8 8 8 8 8 8 8 7 7 7 6 6 6 6 6 6 7 8 8 9 9 9 8 6 6 7 7 6 6 6 7 7 8
12 11 11 11 11 11 10 10 10 9 9 9 9 8 8 8 7 6 5 5 6 6 6 6 7 8 8 7 7 8 8 8 9 9 9 9 9 9 9 9 9 9 9 9 8 7 6 7 7 8 8 8 7 7 8 9 9 8 7 6 6 6 7 7 7 6 6 6 6
12 11 11 11 11 11 11 11 10 10 10 10 9 8 8 7 7 6 6 6 6 6 5 6 7 8 8 8 8 8 9 9 9 9 9 10 10 10 10 10 10 10 10 9 9 8 8 8 9 10 10 9 7 7 7 8 8 7 7 6 6 6 7 7 7 6 5 5 5
12 12 12 12 12 12 11 11 10 10 9 10 9 8 7 6 6 7 7 7 7 6 6 6 6 7 8 9 9 9 10 10 10 10 10 10 10 10 11 10 11 11 11 10 10 10 10 10 11 11 11 10 8 7 7 8 8 8 8 8 8 8 8 7 7 6 5 5 5
13 12 12 12 12 12 11 11 10 9 9 9 9 8 7 6 7 7 7 8 8 7 7 7 6 7 8 10 11 11 11 11 11 11 11 11 11 11 11 11 12 12 11 10 10 10 11 11 11 11 11 11 10 9 9 10 10 10 10 9 9 8 7 7 6 6 6 6 6
13 13 13 12 12 12 11 11 9 9 9 9 8 8 7 7 7 8 8 9 8 8 8 8 8 8 8 10 11 12 12 11 12 12 11 11 11 11 11 11 12 12 11 11 10 10 10 10 11 11 11 11 11 11 11 11 11 10 10 9 8 7 7 7 7 7 7 7 6
14 14 13 13 13 13 12 11 9 9 8 9 9 9 8 8 8 8 9 10 9 9 9 10 10 9 9 10 11 11 11 11 11 11 11 11 11 11 11 11 11 11 11 10 10 10 9 8 8 9 10 10 10 10 10 10 9 8 8 7 8 8 9 8 8 7 7 7 7
14 14 14 14 14 14 13 12 11 10 9 9 9 9 9 9 9 9 10 11 11 11 12 12 11 11 11 11 11 10 10 11 11 11 11 12 12 11 11 10 10 9 9 9 9 8 8 7 7 7 7 7 7 7 7 7 6 6 6 7 8 8 8 7 7 7 7 7 7
15 15 15 15 15 14 13 13 11 11 10 10 10 10 10 11 11 11 11 11 12 13 13 13 12 12 12 13 12 10 10 10 11 12 11 11 11 11 10 9 8 8 7 7 7 7 7 7 7 6 6 5 4 4 3 4 4 5 6 7 7 7 7 7 7 7 7 7 7
15 15 15 15 15 14 13 12 12 11 10 9 10 11 12 12 12 12 12 12 12 13 13 13 13 12 12 13 12 11 10 9 11 12 11 10 10 10 9 9 8 8 8 8 8 8 8 8 7 7 6 5 5 4 3 3 4 5 7 7 7 7 7 7 7 7 7 8 8
16 16 15 15 14 13 13 12 11 11 10 10 11 12 12 13 13 13 13 13 12 12 13 13 13 13 13 13 13 12 10 9 11 12 11 10 9 9 9 9 9 9 9 9 9 9 8 8 8 8 7 7 6 6 5 5 6 6 7 7 7 7 7 7 7 8 8 8 8
16 15 14 14 13 12 12 11 11 11 11 11 11 12 12 12 12 12 12 12 12 12 12 12 13 14 14 14 13 13 11 9 11 12 12 11 10 9 9 9 10 10 10 10 9 8 8 8 8 8 8 7 8 8 7 7 7 7 7 7 7 7 8 8 9 9 9 9 9
14 13 13 12 12 11 11 11 10 10 9 9 9 9 10 10 10 11 11 11 11 11 10 9 10 12 13 13 13 13 12 11 11 12 12 12 12 11 10 9 10 10 10 9 8 8 8 7 8 8 8 8 9 9 9 9 8 8 8 8 8 8 9 9 10 10 11 11 11
11 10 10 9 10 10 10 9 8 8 7 6 6 7 7 8 8 9 10 11 10 10 9 7 8 9 10 11 11 12 12 12 11 11 11 12 12 12 11 10 10 9 9 7 7 7 7 7 7 8 8 8 9 9 9 9 9 9 9 9 9 9 9 10 10 10 10 11 11
9 8 8 8 9 9 9 9 9 9 9 8 8 8 8 8 9 9 10 10 10 10 9 9 9 9 9 9 10 11 11 12 12 11 11 11 11 11 11 10 9 8 7 6 8 9 9 8 8 7 8 8 8 8 9 9 10 10 9 9 8 8 9 9 9 10 10 10 10
8 8 9 10 10 11 11 11 12 12 12 11 10 10 10 9 9 9 10 10 9 9 9 10 10 10 9 9 10 10 10 11 11 11 10 10 10 11 10 9 8 7 7 7 9 11 12 12 10 9 8 8 8 8 8 8 9 9 9 8 8 8 8 9 9 9 9 9 9
9 9 10 11 12 12 13 12 13 13 13 12 12 12 11 11 10 10 9 9 9 9 9 9 10 10 9 9 11 11 11 10 10 11 11 10 10 10 10 9 8 7 7 8 11 13 14 14 14 12 10 8 8 7 7 7 7 7 7 7 7 8 9 9 9 9 8 7 7
11 11 12 12 13 13 13 12 11 11 11 11 12 12 13 13 13 12 11 10 10 9 9 9 9 9 8 9 11 12 12 11 11 11 11 11 11 11 10 9 8 7 8 10 13 14 15 16 16 15 13 10 8 7 6 6 6 6 6 7 7 8 8 8 8 7 6 6 5
13 13 13 13 13 12 11 10 9 8 8 8 8 9 10 11 12 13 13 14 13 12 10 8 8 8 8 9 11 12 13 13 11 11 11 11 11 11 10 10 9 9 10 12 14 15 16 17 17 16 15 12 8 6 6 6 6 6 6 6 6 7 7 7 6 5 5 5 4
14 14 14 14 13 12 12 11 10 10 9 7 6 6 6 6 8 9 11 13 14 13 12 9 9 10 11 12 12 12 12 12 11 11 11 12 12 11 11 10 9 9 10 13 15 15 16 16 16 16 16 15 10 7 6 5 5 5 6 6 6 6 6 6 5 5 4 4 4
14 14 14 13 13 13 13 12 12 11 10 9 8 6 5 4 4 5 7 9 10 10 10 10 11 12 13 13 12 13 13 12 12 12 12 12 12 12 11 10 10 9 9 12 13 14 14 15 15 15 16 15 11 8 6 5 6 5 5 5 5 5 5 5 4 4 4 4 4
14 14 14 14 13 13 13 13 12 11 10 9 8 6 5 3 2 3 5 7 9 10 10 11 12 12 13 13 13 13 13 13 13 12 12 12 12 12 11 10 10 9 8 10 11 11 12 13 14 14 15 15 11 9 7 6 5 5 4 4 4 4 4 3 3 3 4 4 4
13 14 14 15 14 14 13 12 11 9 8 6 5 4 4 4 4 4 5 6 9 11 13 13 13 14 14 14 14 14 14 13 13 13 12 12 12 11 11 10 9 8 7 9 9 10 11 12 13 13 14 14 11 8 7 5 4 3 3 3 3 3 4 4 4 5 5 6 5
13 13 14 15 15 14 12 10 9 7 6 4 2 2 3 3 3 3 5 7 9 11 13 14 14 14 14 14 14 14 13 12 12 12 12 11 11 10 9 8 6 5 6 8 9 10 11 11 12 12 12 12 9 7 6 5 4 4 4 4 4 4 5 5 6 6 6 7 6
13 13 14 14 14 13 11 9 8 7 6 4 2 2 3 3 3 3 5 7 9 11 12 12 13 13 13 13 13 13 13 12 11 11 11 10 9 9 8 6 3 3 4 7 9 10 10 10 11 11 10 9 7 6 5 6 5 5 5 5 5 5 6 6 6 6 6 6 6
14 14 13 13 13 12 10 9 8 8 7 5 3 2 2 1 2 3 6 8 10 12 13 12 12 12 12 11 11 11 11 11 10 9 9 8 8 7 6 4 2 2 2 5 7 9 10 10 10 10 10 7 6 5 5 5 5 6 6 6 6 6 6 6 5 5 5 5 5
14 13 13 13 12 11 10 9 9 9 8 7 5 4 3 4 4 5 6 9 11 12 13 12 12 12 12 11 9 7 7 8 8 7 7 6 6 6 5 4 3 3 1 3 6 9 10 11 12 11 10 7 6 5 5 5 5 5 6 6 6 6 6 5 5 6 6 6 5
12 12 12 12 12 11 10 9 9 9 9 9 7 6 6 6 6 7 8 9 11 12 12 11 11 11 10 9 7 6 5 5 5 6 6 5 5 6 6 6 4 4 3 0 4 7 10 11 12 12 10 7 6 6 5 5 5 5 6 6 5 5 5 5 5 6 8 9 9
11 11 12 12 12 11 9 8 8 9 9 9 8 8 8 8 7 8 8 8 10 11 11 10 10 9 8 7 7 6 6 6 6 6 6 6 6 7 7 7 5 4 4 4 4 6 8 10 11 11 9 7 6 6 5 5 5 6 6 6 5 5 5 5 6 7 9 12 14
10 10 11 11 11 10 9 8 7 7 7 8 9 10 9 8 8 8 8 7 7 8 8 9 9 8 8 8 8 9 9 9 8 8 8 7 8 9 9 8 7 6 6 7 8 8 9 9 10 9 8 6 6 6 6 6 6 6 6 5 5 5 5 6 7 8 8 10 12
9 10 10 10 9 9 8 8 7 7 7 8 10 10 9 8 8 7 7 6 6 6 7 8 9 9 9 9 9 10 11 11 10 10 9 10 10 10 9 9 8 8 8 9 10 11 12 11 11 10 8 6 6 6 6 6 7 7 6 6 5 5 6 7 7 7 7 7 7
Wind_Direction
167 170 171 169 169 171 173 175 173 172 174 176 180 180 181 183 186 187 189 190 194 197 198 197 194 190 182 172 171 175 181 183 178 175 175 178 180 177 170 161 159 158 158 156 151 152 155 159 158 160 164 172 180 187 187 171 161 165 174 182 179 170 167 171 175 173 170 169 162
173 175 174 170 171 172 173 173 172 175 178 180 182 182 183 186 188 189 190 192 196 196 195 195 188 181 176 173 171 173 176 178 175 172 171 173 173 168 160 156 158 158 157 154 152 153 155 157 161 164 167 169 176 182 182 163 154 161 171 182 175 165 164 171 172 169 166 164 156
177 177 176 174 176 177 178 179 179 180 182 183 183 184 185 190 191 191 191 193 192 191 190 191 184 177 172 169 169 170 172 174 171 168 166 167 161 154 150 148 150 150 149 147 149 150 152 155 164 168 170 171 177 181 180 160 151 160 169 176 163 156 159 169 165 162 161 162 163
179 179 180 180 182 184 185 184 182 182 183 183 181 182 186 193 193 192 189 185 183 186 189 189 182 173 167 163 164 167 168 167 164 163 162 157 148 143 139 138 141 141 140 139 141 142 144 151 162 168 168 167 174 177 174 152 147 152 158 159 149 151 158 165 162 162 165 170 174
183 185 186 186 186 188 189 186 182 182 183 182 182 185 189 194 194 190 185 181 186 189 188 183 176 167 159 155 159 160 160 157 158 158 156 150 139 131 128 129 135 136 133 131 134 136 140 148 157 158 154 155 162 162 153 140 140 139 137 128 142 152 157 160 164 167 169 173 183
187 189 190 189 188 190 191 189 182 181 182 182 184 187 192 194 194 192 191 191 190 183 175 169 166 157 149 147 152 154 154 152 153 153 151 145 132 124 121 124 128 128 127 127 129 133 139 148 153 146 134 133 132 131 132 135 139 138 137 143 162 163 161 166 171 173 175 178 187
189 190 191 191 189 190 192 191 184 181 181 184 187 190 193 194 194 194 193 191 182 173 167 165 162 154 149 147 150 152 151 149 148 147 145 138 128 124 123 125 123 124 127 129 130 134 141 149 151 143 131 124 123 129 136 143 145 147 153 167 178 176 172 176 175 176 179 184 189
190 191 192 192 190 191 192 192 185 183 184 190 192 194 194 193 193 192 190 186 180 174 169 166 161 155 150 148 150 150 148 144 143 140 135 129 125 124 124 123 122 125 130 133 136 139 143 147 147 144 141 137 137 146 153 154 154 159 168 178 184 186 184 182 179 181 185 188 192
191 193 194 193 192 192 193 193 188 187 189 195 195 195 193 193 191 190 188 187 182 173 165 162 154 147 142 143 145 145 145 143 140 136 130 126 126 126 125 123 125 128 132 136 139 142 143 143 143 145 148 149 152 162 166 165 165 170 177 182 185 189 191 188 184 186 189 190 194
192 193 193 194 194 193 193 194 192 191 192 196 196 194 191 191 191 190 188 186 173 164 159 157 146 140 137 139 141 142 142 140 139 136 133 132 133 134 134 133 133 135 138 142 143 143 143 143 146 151 156 158 162 169 174 175 176 179 184 187 186 188 191 194 189 190 192 195 198
192 192 192 194 194 192 192 193 195 196 196 198 196 193 190 190 190 189 184 173 161 159 158 150 142 140 139 139 141 142 142 142 142 140 139 139 141 142 143 143 142 144 146 151 149 148 148 150 154 160 166 171 171 175 180 183 184 186 189 190 186 187 191 197 195 195 197 199 201
193 192 192 194 192 191 191 194 197 199 199 200 197 194 190 190 188 182 173 162 159 156 152 144 143 144 144 143 144 144 144 145 145 145 145 146 147 148 148 148 148 150 153 158 158 158 159 162 165 169 174 179 180 182 184 186 188 190 192 190 186 189 195 200 199 199 200 199 200
194 193 192 193 191 191 192 196 199 200 200 201 198 195 190 187 179 170 162 159 155 149 143 141 145 147 148 148 149 149 149 150 150 150 150 150 151 152 152 152 154 156 160 165 167 168 170 172 174 176 179 183 186 186 185 186 189 193 194 192 192 198 202 204 201 199 197 193 197
196 194 194 193 191 192 194 198 201 201 201 200 198 194 187 179 168 161 158 157 152 147 143 144 149 152 154 154 153 153 154 153 152 152 153 154 156 157 158 159 161 164 167 172 174 175 176 179 180 181 181 183 185 185 184 185 191 195 197 197 200 204 208 206 200 194 191 190 193
197 197 195 193 192 194 196 199 201 201 200 198 195 190 183 173 163 159 157 157 154 151 149 150 154 157 158 156 156 156 156 155 154 154 155 158 160 162 164 166 169 171 174 176 179 181 181 182 183 183 182 182 183 184 185 188 193 195 197 197 200 205 209 209 198 191 188 187 188
199 199 197 195 195 196 198 199 200 200 198 195 190 185 179 172 162 159 159 160 159 157 156 157 159 160 160 160 159 158 158 157 156 156 157 161 165 168 170 172 174 176 177 177 181 185 187 187 186 185 184 184 186 188 190 192 194 195 196 195 198 206 212 210 197 190 186 184 184
200 200 199 197 198 198 199 199 199 197 194 190 184 180 177 173 165 164 165 166 166 165 164 164 162 162 163 164 162 161 159 159 159 159 161 165 169 173 175 177 178 178 177 177 181 186 191 194 194 192 190 189 191 193 195 196 197 199 200 199 202 206 208 203 191 184 180 180 182
201 201 200 199 200 200 200 198 197 194 190 185 180 178 177 174 169 168 170 171 171 170 169 167 165 165 165 166 167 165 162 162 162 164 166 169 172 175 177 178 177 176 175 175 180 185 191 197 203 205 204 200 198 198 198 198 202 207 210 212 211 207 201 190 181 176 175 177 178
202 201 201 201 201 201 200 198 196 192 187 181 178 177 176 175 171 171 172 175 175 173 171 169 167 167 167 167 168 166 164 163 163 165 168 171 173 174 175 173 170 168 169 172 179 187 194 202 209 214 218 222 222 220 213 205 208 212 216 216 212 203 191 179 175 173 173 175 173
202 202 202 202 201 200 199 196 194 191 186 179 176 176 177 177 173 172 174 177 176 174 172 170 167 168 168 168 167 166 165 162 162 164 166 170 172 171 168 163 162 166 173 182 189 195 201 206 210 214 220 228 234 237 233 219 214 212 211 210 204 194 184 176 174 174 173 172 167
203 203 202 201 200 198 197 195 192 189 186 181 178 178 178 178 176 174 174 175 174 173 172 172 168 168 168 168 167 166 164 162 161 162 163 167 169 168 165 163 169 176 185 193 198 201 203 204 207 210 214 218 222 223 221 216 212 207 204 201 196 191 184 179 177 176 175 172 168
204 203 201 199 197 196 194 192 190 189 188 185 182 180 179 179 177 173 170 169 169 171 172 172 168 168 168 169 167 166 164 163 163 162 162 163 166 168 170 176 182 188 193 198 199 200 201 203 205 206 208 212 215 215 214 212 210 206 202 199 197 193 189 185 183 181 180 179 180
204 201 198 196 193 191 189 187 186 185 184 183 178 175 174 175 171 165 161 162 165 167 168 167 166 167 168 168 166 164 161 162 163 163 161 162 165 171 178 186 193 196 198 198 196 196 198 202 206 207 209 211 213 214 213 211 210 209 207 205 203 200 197 194 191 190 189 189 192
198 194 191 188 184 181 177 172 167 161 154 146 141 141 145 151 151 151 153 158 161 160 159 158 163 165 166 165 162 159 157 158 160 162 163 164 168 174 181 189 195 199 200 198 193 191 193 198 205 208 211 212 214 215 214 213 213 212 211 208 206 204 202 202 200 199 198 198 201
188 183 178 173 168 162 154 146 138 131 125 119 115 116 120 128 135 142 149 156 158 157 155 154 159 163 163 161 158 155 154 155 158 161 165 169 172 177 182 188 192 197 199 197 190 188 190 195 201 206 210 212 214 214 214 213 213 213 212 208 204 203 205 207 208 207 207 206 207
176 170 165 160 153 147 142 138 133 130 127 124 121 120 122 126 132 139 147 155 158 158 156 155 159 161 162 158 154 152 153 156 160 164 170 175 178 180 183 188 191 193 196 195 189 190 193 198 202 205 207 210 211 211 212 213 212 212 210 206 201 201 203 207 210 212 212 212 212
168 163 159 152 148 147 147 146 143 140 138 136 136 136 136 137 136 139 145 155 161 162 160 158 159 160 159 156 153 153 156 161 167 172 176 181 183 185 187 191 193 194 193 192 190 192 196 202 205 206 207 209 209 209 209 211 209 207 205 203 200 200 202 206 209 211 213 215 214
164 160 156 153 151 150 149 147 146 145 144 145 148 149 148 146 144 146 153 164 170 171 169 166 161 159 158 158 156 158 161 166 173 179 183 186 187 190 192 196 197 196 194 192 192 195 199 204 207 208 207 207 209 208 207 206 204 201 201 201 202 203 205 208 209 208 208 210 210
160 158 156 157 155 152 147 143 139 135 133 137 145 148 149 148 151 156 162 169 173 176 177 174 165 161 161 162 160 161 164 170 177 183 187 190 192 194 197 201 201 199 196 193 195 198 201 205 208 208 207 205 207 208 206 205 202 200 200 203 204 205 207 210 208 204 200 199 197
158 156 155 155 152 148 144 139 134 129 126 125 125 126 130 140 154 162 167 170 174 176 177 172 165 163 163 162 161 163 168 174 180 186 189 192 195 197 200 204 205 202 197 193 195 198 201 204 206 206 206 204 205 205 204 203 200 200 201 205 205 205 204 204 200 196 191 187 182
157 155 153 152 149 146 142 138 135 133 132 130 124 120 122 136 152 165 171 172 172 172 170 166 162 161 161 161 163 167 172 176 182 187 191 193 196 198 201 206 209 206 198 189 191 195 199 201 203 204 204 202 203 203 202 198 196 197 199 202 201 199 196 192 187 180 173 166 161
158 155 152 149 148 145 141 137 137 137 136 134 133 139 153 180 217 220 199 175 163 160 160 160 160 160 161 163 168 173 176 179 184 189 192 193 195 198 200 205 210 208 197 183 184 189 194 197 199 200 200 199 201 201 199 192 188 186 186 187 185 181 176 170 163 155 148 142 140
159 156 152 149 147 145 142 139 140 140 140 139 151 178 209 239 254 237 201 165 154 154 157 160 161 163 166 170 175 178 180 182 185 188 190 191 194 196 199 204 209 205 193 178 179 183 189 194 195 196 195 195 198 198 192 179 169 161 156 152 144 140 140 142 140 136 133 131 131
159 157 153 150 148 147 145 143 142 140 137 137 181 236 255 265 253 217 178 152 150 154 158 162 165 168 172 176 180 182 183 184 186 187 188 189 191 194 198 204 204 195 181 175 178 182 186 189 190 190 189 188 190 188 178 160 146 133 126 121 115 115 118 123 127 129 130 131 132
159 157 155 152 151 150 148 144 138 132 127 129 183 242 260 263 239 199 167 151 151 154 159 163 167 171 175 179 181 183 183 183 184 184 184 183 184 187 191 196 188 169 163 172 177 180 182 183 182 180 177 175 176 172 160 147 134 126 121 116 112 111 113 115 118 121 124 127 127
159 157 156 154 153 151 148 143 135 130 127 135 164 196 207 182 181 166 157 151 152 155 159 163 167 171 176 180 182 182 181 180 178 177 175 173 173 174 172 161 124 104 139 171 175 176 175 173 169 164 160 157 158 154 147 137 128 122 118 114 113 112 111 109 106 104 103 104 108
157 156 155 153 152 150 147 142 137 134 136 142 150 152 144 132 135 143 149 152 154 157 159 162 166 171 175 177 177 176 173 170 166 161 158 156 155 150 137 111 75 45 39 177 174 171 167 164 158 154 150 147 149 145 138 128 122 117 114 111 109 105 101 98 92 84 77 72 76
155 154 152 151 150 148 146 143 142 143 144 147 143 139 135 134 138 145 152 156 157 158 159 161 165 167 168 166 161 151 137 129 129 130 129 127 127 121 111 94 64 35 18 77 166 164 160 156 152 150 147 146 146 141 132 122 117 114 111 109 102 95 88 86 81 73 67 63 66
152 151 150 149 148 147 146 145 147 149 148 144 137 135 138 142 146 151 155 157 156 156 155 155 156 154 148 138 125 106 88 79 85 92 98 100 100 100 99 93 73 52 42 50 102 129 138 141 141 140 139 136 137 132 126 118 114 112 110 108 103 96 88 85 80 75 71 69 72
149 148 147 146 145 144 142 141 142 142 139 134 132 135 140 145 145 147 148 148 147 145 142 139 134 128 120 111 102 90 78 67 67 72 79 84 86 89 91 92 84 72 63 63 76 88 100 109 115 118 119 120 121 120 118 116 113 111 111 111 110 104 95 86 83 81 79 76 76
145 143 142 141 139 136 133 130 128 126 126 127 131 135 138 139 138 137 136 131 126 122 117 112 109 105 99 94 91 87 82 75 70 70 75 79 81 83 86 91 87 80 73 69 74 79 84 89 94 98 102 106 109 112 114 115 115 114 115 115 114 109 101 92 88 86 85 83 79